Weather History for Mobridge, SD

Change the Weather History Date:

Friday, November 11, 2011

  Actual Average Record
Temperature  
Mean Temperature 46 °F 35 °F  
Max Temperature 62 °F 46 °F 71 °F (2005)
Min Temperature 29 °F 24 °F -6 °F (1911)
Degree Days  
Heating Degree Days 19 30  
Month to date heating degree days 276 303  
Since 1 July heating degree days 902 1077  
Cooling Degree Days 0 0  
Month to date cooling degree days 0 0  
Year to date cooling degree days 684 644  
Moisture  
Dew Point 22 °F    
Average Humidity 45    
Maximum Humidity 69    
Minimum Humidity 20    
Precipitation  
Precipitation 0.00 in 0.02 in 0.10 in (2000)
Month to date precipitation 0.01 0.32  
Year to date precipitation 18.85 17.27  
Snow  
Snow 0.00 in - - ()
Month to date snowfall 0.0  
Since 1 July snowfall 0.0  
Snow Depth 0.00 in    
Sea Level Pressure  
Sea Level Pressure 29.61 in    
Wind  
Wind Speed 7 mph (WNW)    
Max Wind Speed 16 mph    
Max Gust Speed 25 mph    
Visibility 10 miles    
Events      
T = Trace of Precipitation, MM = Missing Value Source: NWS Daily Summary

Daily Weather History Graph

Daily Weather History Graph

Search for Another Location

Airport:

Trip Planner

Search our weather history database for the weather conditions in past years. The results will help you decide how hot, cold, wet, or windy it might be!

Date:

Astronomy

Nov. 11, 2011 Rise Set
Actual Time 7:34 AM CST 5:15 PM CST
Civil Twilight 7:03 AM CST 5:47 PM CST
Nautical Twilight 6:27 AM CST 6:23 PM CST
Astronomical Twilight 5:52 AM CST 6:57 PM CST
Moon 5:41 PM CST (11/11) 8:29 AM CST (11/11)
Length of Visible Light 10h 44m
Length of Day
9h 40m
Full, 99% of the Moon is Illuminated
Nov 11
Full
Nov 18
Last Quarter
Nov 25
New
Dec 2
First Quarter
Dec 10
Full

Hourly Weather History & Observations

Time (CST) Temp. Windchill Dew Point Humidity Pressure Visibility Wind Dir Wind Speed Gust Speed Precip Events Conditions
12:52 AM 34.0 °F 27.2 °F 24.1 °F 67% 29.70 in 10.0 mi SE 8.1 mph - N/A   Clear
1:52 AM 37.0 °F 33.3 °F 23.0 °F 57% 29.68 in 10.0 mi SE 4.6 mph - N/A   Clear
2:52 AM 33.1 °F 27.7 °F 19.9 °F 59% 29.68 in 10.0 mi WNW 5.8 mph - N/A   Clear
3:52 AM 34.0 °F 29.8 °F 19.9 °F 56% 29.68 in 10.0 mi NW 4.6 mph - N/A   Clear
4:52 AM 33.1 °F 27.7 °F 21.0 °F 61% 29.68 in 10.0 mi NW 5.8 mph - N/A   Clear
5:52 AM 36.0 °F 29.0 °F 21.0 °F 55% 29.68 in 10.0 mi North 9.2 mph - N/A   Clear
6:52 AM 37.0 °F 30.4 °F 21.9 °F 54% 29.67 in 10.0 mi NW 9.2 mph - N/A   Clear
7:52 AM 36.0 °F 28.5 °F 21.9 °F 57% 29.68 in 10.0 mi North 10.4 mph - N/A   Clear
8:52 AM 42.1 °F 37.7 °F 23.0 °F 47% 29.68 in 10.0 mi NNW 6.9 mph - N/A   Clear
9:52 AM 46.0 °F 43.9 °F 23.0 °F 40% 29.67 in 10.0 mi NW 4.6 mph - N/A   Clear
10:52 AM 50.0 °F - 21.9 °F 33% 29.66 in 10.0 mi WNW 11.5 mph - N/A   Clear
11:52 AM 55.0 °F - 23.0 °F 29% 29.65 in 10.0 mi WNW 11.5 mph - N/A   Clear
12:52 PM 59.0 °F - 24.1 °F 26% 29.62 in 10.0 mi NW 13.8 mph - N/A   Clear
1:52 PM 61.0 °F - 23.0 °F 23% 29.60 in 10.0 mi West 10.4 mph - N/A   Clear
2:52 PM 62.1 °F - 21.9 °F 21% 29.58 in 10.0 mi West 11.5 mph - N/A   Clear
3:52 PM 61.0 °F - 21.0 °F 21% 29.57 in 10.0 mi West 8.1 mph - N/A   Clear
4:52 PM 55.0 °F - 19.0 °F 24% 29.57 in 10.0 mi WSW 4.6 mph - N/A   Clear
5:52 PM 36.0 °F - 19.0 °F 50% 29.57 in 10.0 mi Calm Calm - N/A   Clear
6:52 PM 39.0 °F 35.7 °F 19.9 °F 46% 29.55 in 10.0 mi SE 4.6 mph - N/A   Clear
7:52 PM 39.9 °F 35.1 °F 23.0 °F 51% 29.54 in 10.0 mi SE 6.9 mph - N/A   Clear
8:52 PM 39.9 °F 36.7 °F 24.1 °F 53% 29.51 in 10.0 mi ESE 4.6 mph - N/A   Clear
9:52 PM 39.0 °F 34.8 °F 18.0 °F 43% 29.49 in 10.0 mi SSE 5.8 mph - N/A   Clear
10:52 PM 37.0 °F 31.6 °F 25.0 °F 62% 29.48 in 10.0 mi ESE 6.9 mph - N/A   Clear
11:52 PM 33.1 °F 26.1 °F 26.1 °F 75% 29.45 in 10.0 mi SE 8.1 mph - N/A   Clear